Weather reports worldwide

Advertisment
Bari Palese, Italy (16270): temperature & dewpoint: 01.07.2020 21:00:00 - 07.07.2020 21:00:00 (CEST)Bari Palese, Italy (16270): wind speed: 01.07.2020 21:00:00 - 07.07.2020 21:00:00 (CEST)Bari Palese, Italy (16270): wind direction: 01.07.2020 21:00:00 - 07.07.2020 21:00:00 (CEST)Bari Palese, Italy (16270): reduced air pressure: 01.07.2020 21:00:00 - 07.07.2020 21:00:00 (CEST)Bari Palese, Italy (16270): visibility: 01.07.2020 21:00:00 - 07.07.2020 21:00:00 (CEST)Bari Palese, Italy (16270): precipitation: 01.07.2020 21:00:00 - 07.07.2020 21:00:00 (CEST)
Date & Time tt [°C] td [°C] ff [km/h] ff [kn] dd ppp [hPa] vv [km] rr [mm]
07.07.2020 21:00:00 - - - - - - - -
07.07.2020 20:00:00 24,0 17,2 18 10 NNW 1012,8 17 -
07.07.2020 19:00:00 - - - - - - - -
07.07.2020 18:00:00 - - - - - - - -
07.07.2020 17:00:00 25,9 16,6 16 9 NNW 1012,4 14 0,0
07.07.2020 16:00:00 - - - - - - - -
07.07.2020 15:00:00 - - - - - - - -
07.07.2020 14:00:00 26,6 17,0 21 11 NNW 1011,2 20 -
07.07.2020 13:00:00 - - - - - - - -
07.07.2020 12:00:00 - - - - - - - -
07.07.2020 11:00:00 26,6 17,7 18 10 NNW 1009,9 20 0,0
07.07.2020 10:00:00 - - - - - - - -
07.07.2020 09:00:00 - - - - - - - -
07.07.2020 08:00:00 25,8 15,0 8 4 W 1007,4 20 -
07.07.2020 07:00:00 - - - - - - - -
07.07.2020 06:00:00 - - - - - - - -
07.07.2020 05:00:00 20,4 14,3 9 5 W 1006,4 - 0,0
07.07.2020 04:00:00 - - - - - - - -
07.07.2020 03:00:00 - - - - - - - -
07.07.2020 02:00:00 19,6 16,9 9 5 WSW 1006,5 - -
07.07.2020 01:00:00 - - - - - - - -
07.07.2020 00:00:00 - - - - - - - -
06.07.2020 23:00:00 23,6 17,6 5 3 W 1006,9 20 0,0
06.07.2020 22:00:00 - - - - - - - -
06.07.2020 21:00:00 - - - - - - - -
06.07.2020 20:00:00 25,7 19,2 5 3 N 1006,5 20 -
06.07.2020 19:00:00 - - - - - - - -
06.07.2020 18:00:00 - - - - - - - -
06.07.2020 17:00:00 26,9 20,2 15 8 N 1006,7 20 0,0
06.07.2020 16:00:00 - - - - - - - -
06.07.2020 15:00:00 - - - - - - - -
06.07.2020 14:00:00 26,9 20,7 15 8 NNW 1008,1 20 -
06.07.2020 13:00:00 - - - - - - - -
06.07.2020 12:00:00 - - - - - - - -
06.07.2020 11:00:00 26,4 18,9 16 9 NNW 1008,9 15 0,0
06.07.2020 10:00:00 - - - - - - - -
06.07.2020 09:00:00 - - - - - - - -
06.07.2020 08:00:00 24,2 16,2 9 5 W 1009,1 20 -
06.07.2020 07:00:00 - - - - - - - -
06.07.2020 06:00:00 - - - - - - - -
06.07.2020 05:00:00 22,7 14,6 13 7 W 1008,9 - 0,0
06.07.2020 04:00:00 - - - - - - - -
06.07.2020 03:00:00 - - - - - - - -
06.07.2020 02:00:00 22,4 15,2 13 7 W 1010,4 20 -
06.07.2020 01:00:00 - - - - - - - -
06.07.2020 00:00:00 - - - - - - - -
05.07.2020 23:00:00 23,8 18,1 11 6 W 1011,1 15 0,0
05.07.2020 22:00:00 - - - - - - - -
05.07.2020 21:00:00 - - - - - - - -
05.07.2020 20:00:00 25,3 19,0 15 8 NNW 1011,3 15 -
05.07.2020 19:00:00 - - - - - - - -
05.07.2020 18:00:00 - - - - - - - -
05.07.2020 17:00:00 26,8 18,8 21 11 NNW 1011,5 15 0,0
05.07.2020 16:00:00 - - - - - - - -
05.07.2020 15:00:00 - - - - - - - -
05.07.2020 14:00:00 27,1 18,3 16 9 NNW 1012,8 20 -
05.07.2020 13:00:00 - - - - - - - -
05.07.2020 12:00:00 - - - - - - - -
05.07.2020 11:00:00 25,9 19,7 16 9 NNW 1013,2 20 0,0
05.07.2020 10:00:00 - - - - - - - -
05.07.2020 09:00:00 - - - - - - - -
05.07.2020 08:00:00 22,3 16,8 13 7 W 1012,7 20 -
05.07.2020 07:00:00 - - - - - - - -
05.07.2020 06:00:00 - - - - - - - -
05.07.2020 05:00:00 20,5 17,2 9 5 W 1012,3 14 0,0
05.07.2020 04:00:00 - - - - - - - -
05.07.2020 03:00:00 - - - - - - - -
05.07.2020 02:00:00 20,3 17,2 4 2 W 1014,2 14 -
05.07.2020 01:00:00 - - - - - - - -
05.07.2020 00:00:00 - - - - - - - -
04.07.2020 23:00:00 21,8 18,9 8 4 WNW 1013,7 20 0,0
04.07.2020 22:00:00 - - - - - - - -
04.07.2020 21:00:00 - - - - - - - -
04.07.2020 20:00:00 22,7 17,7 8 4 WNW 1012,9 30 -
04.07.2020 19:00:00 - - - - - - - -
04.07.2020 18:00:00 - - - - - - - -
04.07.2020 17:00:00 22,2 17,0 11 6 SW 1014,2 20 0,0
04.07.2020 16:00:00 - - - - - - - -
04.07.2020 15:00:00 - - - - - - - -
04.07.2020 14:00:00 25,4 20,1 13 7 NNW 1013,6 14 -
04.07.2020 13:00:00 - - - - - - - -
04.07.2020 12:00:00 - - - - - - - -
04.07.2020 11:00:00 28,3 18,1 15 8 NNW 1013,2 17 0,0
04.07.2020 10:00:00 - - - - - - - -
04.07.2020 09:00:00 - - - - - - - -
04.07.2020 08:00:00 25,3 20,6 16 9 W 1012,9 17 -
04.07.2020 07:00:00 - - - - - - - -
04.07.2020 06:00:00 - - - - - - - -
04.07.2020 05:00:00 21,4 19,7 5 3 W 1012,3 - 0,0
04.07.2020 04:00:00 - - - - - - - -
04.07.2020 03:00:00 - - - - - - - -
04.07.2020 02:00:00 23,1 20,6 5 3 W 1012,4 11 -
04.07.2020 01:00:00 - - - - - - - -
04.07.2020 00:00:00 - - - - - - - -
03.07.2020 23:00:00 24,8 22,1 4 2 WSW 1012,5 17 0,0
03.07.2020 22:00:00 - - - - - - - -
03.07.2020 21:00:00 - - - - - - - -
03.07.2020 20:00:00 27,0 21,5 5 3 NW 1011,0 16 -
03.07.2020 19:00:00 - - - - - - - -
03.07.2020 18:00:00 - - - - - - - -
03.07.2020 17:00:00 30,0 19,0 9 5 NNE 1009,7 12 0,0
03.07.2020 16:00:00 - - - - - - - -
03.07.2020 15:00:00 - - - - - - - -
03.07.2020 14:00:00 31,4 18,3 13 7 NE 1009,9 11 -
03.07.2020 13:00:00 - - - - - - - -
03.07.2020 12:00:00 - - - - - - - -
03.07.2020 11:00:00 30,4 18,9 8 4 N 1010,1 11 0,0
03.07.2020 10:00:00 - - - - - - - -
03.07.2020 09:00:00 - - - - - - - -
03.07.2020 08:00:00 27,7 19,4 4 2 N 1010,0 - -
03.07.2020 07:00:00 - - - - - - - -
03.07.2020 06:00:00 - - - - - - - -
03.07.2020 05:00:00 22,5 19,1 9 5 WSW 1009,7 20 0,0
03.07.2020 04:00:00 - - - - - - - -
03.07.2020 03:00:00 - - - - - - - -
03.07.2020 02:00:00 23,8 19,0 5 3 NW 1010,1 20 -
03.07.2020 01:00:00 - - - - - - - -
03.07.2020 00:00:00 - - - - - - - -
02.07.2020 23:00:00 25,0 21,2 4 2 SW 1010,3 11 0,0
02.07.2020 22:00:00 - - - - - - - -
02.07.2020 21:00:00 - - - - - - - -
02.07.2020 20:00:00 26,9 21,6 5 3 ENE 1009,8 11 -
02.07.2020 19:00:00 - - - - - - - -
02.07.2020 18:00:00 - - - - - - - -
02.07.2020 17:00:00 28,5 21,4 8 4 NE 1010,0 11 0,0
02.07.2020 16:00:00 - - - - - - - -
02.07.2020 15:00:00 - - - - - - - -
02.07.2020 14:00:00 30,9 19,8 11 6 NNE 1010,2 20 -
02.07.2020 13:00:00 - - - - - - - -
02.07.2020 12:00:00 - - - - - - - -
02.07.2020 11:00:00 30,5 18,2 5 3 N 1010,8 20 0,0
02.07.2020 10:00:00 - - - - - - - -
02.07.2020 09:00:00 - - - - - - - -
02.07.2020 08:00:00 28,6 17,8 4 2 N 1010,9 20 -
02.07.2020 07:00:00 - - - - - - - -
02.07.2020 06:00:00 - - - - - - - -
02.07.2020 05:00:00 22,8 16,6 5 3 SSW 1010,3 20 0,0
02.07.2020 04:00:00 - - - - - - - -
02.07.2020 03:00:00 - - - - - - - -
02.07.2020 02:00:00 24,3 16,3 8 4 WSW 1010,7 20 -
02.07.2020 01:00:00 - - - - - - - -
02.07.2020 00:00:00 - - - - - - - -
01.07.2020 23:00:00 25,8 17,5 8 4 SSW 1011,0 30 0,0
01.07.2020 22:00:00 - - - - - - - -
01.07.2020 21:00:00 - - - - - - - -

tt = temperature
td = dewpoint
ff = wind speed
dd = wind direction
ppp = reduced air pressure
vv = visibility
rr = precipitation

Next stations